Location: Unspecified
(32.3479°N, 0.0000°E)
Time: 00:19:54
(UTC+00:00)

JUGNU - Visible Passes

Search period start: 05 April 2026 00:00
Search period end: 15 April 2026 00:00
Orbit: 833 x 860 km, 20.0° (Epoch: 29 March)

Date Brightness Start Highest point End Pass type
(mag) Time Alt. Az. Time Alt. Az. Time Alt. Az.
5 Apr ? 19:33:32 10° SW 19:38:06 23° S 19:40:39 18° SSE visible
6 Apr ? 19:17:11 10° SW 19:21:43 23° S 19:25:23 13° SE visible
6 Apr ? 21:06:43 10° SW 21:07:09 11° SW 21:07:09 11° SW visible
7 Apr ? 19:00:52 10° SW 19:05:19 22° S 19:09:46 10° SE visible
7 Apr ? 20:50:37 10° SW 20:51:53 13° SW 20:51:53 13° SW visible
8 Apr ? 18:44:33 10° SW 18:48:55 22° S 18:53:18 10° SE visible
8 Apr ? 20:34:35 10° SW 20:36:37 13° SSW 20:36:37 13° SSW visible
9 Apr ? 20:18:40 10° SW 20:20:47 12° SSW 20:21:21 12° S visible
10 Apr ? 20:02:58 10° SSW 20:04:22 11° SSW 20:05:47 10° S visible
